SCP
0 0 0 0 0 0 0 0 0 0 0 0 0 0 0 0 0 0 0 0 0 0 0 0 0 0 0 0 0 0 0 0 0 0 0 0 0 0 0 0 0 0 0 0
0 0 0 0 0 0 0 0 0 0 0 0 0 0 0 0 0 0 0 0 0 0 0 0 0 0 0 0 0 0 0 0 0 0 0 0 0 0 0 0 0 0 0 0
0 0 0 0 0 0 0 0 0 0 0 0 0 0 0 0 0 0 0 0 0 0 0 0 0 0 0 0 0 0 0 0 0 0 0 0 0 0 0 0 0 0 0 0
-0 0 0 0 0 0 0 0 0 0 0 0 0 0 0 0 0 0 0 0 0 0 0 0 0 0 0 0 0 0 0 0 0 0 0 0 0 0 0 0 0 0 0 0
-0 -0 0 0 0 0 0 0 0 0 0 0 0 0 0 0 0 0 0 0 0 0 0 0 0 0 0 0 0 0 0 0 0 0 0 0 0 0 0 0 0 0 0 0
-0 0 0 0 0 0 0 0 0 0 0 0 0 0 0 0 0 0 0 0 0 0 0 0 0 0 0 0 0 0 0 0 0 0 0 0 0 0 0 0 0 0 0 0
0 0 0 0 0 0 0 0 0 0 0 0 0 0 0 0 0 0 0 0 0 0 0 0 0 0 0 0 0 0 0 0 0 0 0 0 0 0 0 0 0 0 0 0
0 0 0 0 0 0 0 0 0 0 0 0 0 0 0 0 0 0 0 0 0 0 0 0 0 0 0 0 0 0 0 0 0 0 0 0 0 0 0 0 0 0 0 0
0 0 0 0 0 0 0 0 0 0 0 0 0 0 0 0 0 0 0 0 0 0 0 0 0 0 0 0 0 0 0 0 0 0 0 0 0 0 0 0 0 0 0 0
0 0 0 0 0 0 0 0 0 0 0 0 0 0 0 0 0 0 0 0 0 0 0 0 0 0 0 0 0 0 0 0 0 0 0 0 0 0 0 0 0 0 0 0
0 0 0 0 0 0 0 0 0 0 0 0 0 0 0 0 0 0 0 0 0 0 0 0 0 0 0 0 0 0 0 0 0 0 0 0 0 0 0 0 0 0 0 0
0 0 0 0 0 0 0 0 0 0 0 0 0 0 0 0 0 0 0 0 0 0 0 0 0 0 0 0 0 0 0 0 0 0 0 0 0 0 0 0 0 0 0 0
0 0 0 0 0 0 0 0 0 0 0 0 0 0 0 0 0 0 0 0 0 0 0 0 0 0 0 0 0 0 0 0 0 0 0 0 0 0 0 0 0 0 0 0
0 0 0 0 0 0 0 0 0 0 0 0 0 0 0 0 0 0 0 0 0 0 0 0 0 0 0 0 0 0 0 0 0 0 0 0 0 0 0 0 0 0 0 0
0 0 0 0 0 0 0 0 0 0 0 0 0 0 0 0 0 0 0 0 0 0 0 0 0 0 0 0 0 0 0 0 0 0 0 0 0 0 0 0 0 0 0 0
0 0 0 0 0 0 0 0 0 0 0 0 0 0 0 0 0 0 0 0 0 0 0 0 0 0 0 0 0 0 0 0 0 0 0 0 0 0 0 0 0 0 0 0
-0 0 0 0 0 0 0 0 0 0 0 0 0 0 0 0 0 0 0 0 0 0 0 0 0 0 0 0 0 0 0 0 0 0 0 0 0 0 0 0 0 0 0 0
-0 -0 0 0 0 0 0 0 0 0 0 0 0 0 0 0 0 0 0 0 0 0 0 0 0 0 0 0 0 0 0 0 0 0 0 0 0 0 0 0 0 0 0 0
-0 0 0 0 0 0 0 0 0 0 0 0 0 0 0 0 0 0 0 0 0 0 0 0 0 0 0 0 0 0 0 0 0 0 0 0 0 0 0 0 0 0 0 0
0 0 0 0 0 0 0 0 0 0 0 0 0 0 0 0 0 0 0 0 0 0 0 0 0 0 0 0 0 0 0 0 0 0 0 0 0 0 0 0 0 0 0 0
0 0 0 0 0 0 0 0 0 0 0 0 0 0 0 0 0 0 0 0 0 0 0 0 0 0 0 0 0 0 0 0 0 0 0 0 0 0 0 0 0 0 0 0
0 0 0 0 0 0 0 0 0 0 0 0 0 0 0 0 0 0 0 0 0 0 0 0 0 0 0 0 0 0 0 0 0 0 0 0 0 0 0 0 0 0 0 0
0 0 0 0 0 0 0 0 0 0 0 0 0 0 0 0 0 0 0 0 0 0 0 0 0 0 0 0 0 0 0 0 0 0 0 0 0 0 0 0 0 0 0 0
0 0 0 0 0 0 0 0 0 0 0 0 0 0 0 0 0 0 0 0 0 0 0 0 0 0 0 0 0 0 0 0 0 0 0 0 0 0 0 0 0 0 0 0
0 0 0 0 0 0 0 0 0 0 0 0 0 0 0 0 0 0 0 0 0 0 0 0 0 0 0 0 0 0 0 0 0 0 0 0 0 0 0 0 0 0 0 0
0 0 0 0 0 0 0 0 0 0 0 0 0 0 0 0 0 0 0 0 0 0 0 0 0 0 0 0 0 0 0 0 0 0 0 0 0 0 0 0 0 0 0 0
0 0 0 0 0 0 0 0 0 0 0 0 0 0 0 0 0 0 0 0 0 0 0 0 0 0 0 0 0 0 0 0 0 0 0 0 0 0 0 0 0 0 0 0
Wind_Speed
6 5 7 9 11 13 14 14 13 13 14 13 10 9 8 7 6 6 6 6 7 7 6 5 5 4 5 4 4 5 5 6 6 5 5 5 5 5 5 5 6 6 6 5
6 6 6 8 12 15 16 15 15 12 16 12 9 7 7 8 8 8 8 8 7 6 6 6 6 5 5 4 4 5 5 5 4 4 4 4 4 4 4 4 4 4 5 5
6 4 3 11 14 16 13 13 14 20 22 8 7 9 10 10 9 9 9 8 8 7 7 7 7 6 6 5 4 4 4 4 4 4 4 4 4 4 4 4 4 4 5 5
3 3 12 11 7 12 14 15 16 14 11 10 13 11 9 9 9 10 9 8 7 7 6 5 5 4 4 4 4 4 4 3 3 4 4 3 3 4 4 3 4 4 5 5
5 6 10 9 7 11 12 15 15 16 14 9 6 3 6 8 9 10 9 7 7 6 5 5 5 5 5 4 4 4 4 4 4 4 4 3 4 4 3 3 3 4 4 5
6 6 11 10 7 6 6 12 11 13 14 10 7 5 9 6 6 6 5 5 5 4 4 4 4 5 5 4 4 5 5 4 3 4 4 4 4 3 2 2 3 3 3 4
7 8 11 10 5 7 8 12 6 10 12 10 12 12 6 5 5 5 5 4 5 5 4 5 5 6 5 5 5 4 3 3 3 3 3 3 2 2 2 2 2 2 3 3
8 9 13 7 8 11 10 4 3 5 7 9 10 7 5 5 6 6 5 4 5 5 4 3 4 6 5 5 4 3 3 3 2 2 2 2 2 1 1 2 2 2 3 4
13 12 7 8 10 9 5 5 5 5 6 7 6 6 6 6 6 6 6 5 4 5 4 3 3 5 5 4 3 4 3 3 2 2 1 2 2 2 1 1 2 2 3 4
7 9 8 8 8 7 6 7 7 6 6 6 7 7 6 6 5 5 5 5 4 5 5 3 3 3 4 3 4 4 4 3 2 2 1 1 1 2 2 2 2 3 3 4
9 9 6 8 10 10 8 6 4 4 5 7 7 6 6 6 6 5 5 4 5 5 5 4 3 3 3 4 5 4 3 2 2 2 2 1 1 2 2 3 4 4 4 4
12 9 9 10 9 9 8 8 7 6 4 4 6 7 6 6 5 5 5 5 5 5 5 4 4 3 3 3 5 5 3 2 2 1 1 1 1 2 4 5 8 9 9 8
11 8 9 8 7 8 9 8 7 7 7 5 5 5 6 5 5 5 5 5 6 6 5 5 4 3 3 3 4 4 3 2 2 1 1 1 1 2 4 5 7 8 10 11
8 6 7 8 8 7 7 6 5 4 4 4 4 4 5 4 4 5 5 5 5 5 5 5 4 3 2 3 4 3 2 2 1 1 1 2 2 2 3 4 5 4 6 10
9 8 9 6 5 4 4 4 4 4 4 3 4 5 6 6 6 5 4 5 5 5 4 4 4 2 2 3 3 3 2 1 1 1 1 2 2 2 3 4 5 5 4 6
8 6 6 6 7 6 5 6 6 6 5 5 5 5 5 5 5 5 5 6 6 5 4 4 3 2 2 3 3 2 1 2 1 1 1 1 2 3 3 4 4 5 5 5
8 9 8 7 8 7 7 7 7 7 6 6 6 6 7 7 6 5 4 3 3 3 3 3 3 2 2 2 2 2 1 1 2 1 1 2 3 4 4 4 5 5 6 7
9 10 9 9 8 7 6 5 5 6 6 6 7 7 8 8 7 5 4 4 4 3 2 2 2 2 2 2 2 1 1 1 1 2 2 3 4 3 4 4 5 6 6 7
7 7 6 6 7 7 6 5 5 5 6 8 8 7 6 6 6 5 5 5 4 2 1 1 2 2 2 1 0 1 1 1 2 2 3 5 5 3 4 5 5 6 6 6
4 4 4 4 4 5 6 6 7 7 6 7 8 8 7 5 6 5 4 3 1 2 2 1 2 2 1 1 1 1 1 2 2 3 3 3 4 5 5 5 6 6 6 6
4 5 6 6 6 6 6 7 8 7 6 7 8 7 6 5 5 5 4 2 0 1 2 1 1 1 1 2 1 1 1 2 3 3 4 4 4 5 5 6 6 6 6 6
4 6 7 7 8 7 6 6 7 8 7 7 7 7 7 5 4 3 2 2 1 1 1 1 0 2 3 2 0 1 2 3 3 3 4 4 5 5 6 6 6 7 7 7
6 7 7 8 8 8 7 7 7 7 7 6 6 6 5 4 3 3 1 1 1 0 1 0 2 4 4 1 0 1 2 3 4 4 4 5 5 6 6 7 7 7 7 7
7 8 8 7 8 9 8 6 6 6 6 6 5 5 4 4 2 2 2 1 0 1 1 2 4 4 4 1 1 2 3 4 4 5 5 5 5 6 6 7 7 7 7 9
7 7 7 8 7 6 6 6 7 7 6 5 5 4 3 2 2 2 1 1 1 2 1 2 4 5 3 2 2 3 4 4 5 5 5 5 6 6 7 7 7 8 8 8
6 6 5 6 5 5 4 4 4 4 4 4 3 3 3 2 3 2 1 1 1 2 2 2 2 3 2 3 4 4 4 5 6 5 6 6 7 7 7 8 9 8 8 9
7 6 5 5 5 4 4 4 4 3 3 3 3 2 2 2 2 2 1 1 1 1 2 2 2 3 3 4 4 5 5 5 5 6 6 6 7 7 8 9 8 8 8 9
Wind_Direction
239 225 188 205 209 200 204 209 216 231 233 240 242 239 243 241 237 231 231 228 221 219 221 220 218 215 209 209 200 187 187 198 210 209 203 199 198 198 195 195 199 197 199 206
240 234 220 230 220 212 217 221 229 244 252 241 241 241 244 238 227 226 230 229 226 221 215 214 212 209 204 205 199 181 189 203 203 192 191 194 196 191 189 194 195 193 202 208
231 241 261 246 216 210 215 216 212 231 243 242 235 234 234 234 224 221 225 224 219 214 211 210 207 198 197 197 181 176 189 196 193 188 192 196 189 184 193 198 198 206 214 216
184 170 232 241 211 207 217 229 222 230 239 228 227 234 232 221 215 220 220 217 215 208 206 207 197 187 179 170 169 175 184 192 191 184 189 186 180 194 202 198 203 213 221 225
169 214 262 277 233 199 206 241 228 229 239 237 226 240 264 229 212 214 212 207 203 198 194 186 186 176 160 165 168 175 190 196 192 183 182 182 193 205 206 201 216 220 223 227
169 198 235 241 230 192 170 255 238 216 229 223 163 214 250 224 205 207 198 188 185 176 166 175 185 160 158 173 177 196 199 194 185 179 181 191 201 205 205 206 223 229 240 237
187 216 252 246 221 133 182 237 233 204 213 197 193 215 224 182 187 188 186 184 170 163 171 188 173 156 167 179 200 202 177 164 164 171 180 187 186 191 197 212 227 242 252 257
181 212 242 223 159 188 218 228 210 204 207 201 211 219 206 195 192 184 181 179 169 162 174 180 163 157 169 196 199 156 144 147 155 162 166 154 160 188 195 199 230 253 261 272
197 217 225 194 206 224 203 204 214 207 213 196 199 209 205 201 196 192 187 181 170 163 163 174 170 162 174 194 158 141 139 150 154 148 149 157 170 192 213 213 232 257 258 268
225 243 237 233 238 244 222 217 217 208 201 189 198 201 200 197 193 190 185 179 166 157 163 181 178 164 171 164 146 139 145 152 149 147 158 178 192 196 209 225 240 256 262 268
232 247 252 248 231 231 233 233 228 222 208 198 190 197 195 193 194 190 183 174 166 168 172 177 163 153 153 149 139 137 143 150 154 164 179 208 236 231 234 230 236 253 250 248
223 213 209 233 229 219 214 219 213 207 220 213 194 194 188 190 189 179 174 166 163 165 163 164 156 151 151 148 143 143 150 163 173 182 193 210 254 299 289 282 288 289 286 283
228 223 218 235 227 212 212 217 210 203 203 207 203 183 174 176 174 166 165 166 170 168 161 154 150 151 156 150 144 149 162 174 180 189 207 233 252 272 297 306 300 299 298 298
231 214 227 229 226 216 212 212 202 203 204 190 178 163 158 157 155 164 174 172 155 144 145 147 146 159 161 143 137 144 154 187 201 201 213 229 244 259 270 283 297 296 296 300
228 214 216 216 213 206 197 179 172 185 179 170 160 157 157 159 166 168 152 136 130 132 141 145 150 168 151 137 139 150 160 185 199 204 217 238 257 267 271 274 279 287 292 296
225 217 208 205 210 204 188 185 186 194 184 175 167 165 159 149 140 132 131 137 142 154 159 155 165 170 146 136 140 152 179 242 271 226 222 259 269 270 273 274 279 283 284 287
206 216 212 211 212 207 200 198 192 187 179 173 169 150 134 127 124 126 126 125 129 139 149 156 163 154 143 145 154 172 184 227 284 293 253 259 262 264 268 272 276 280 280 286
216 216 209 201 195 193 195 191 179 171 172 165 143 137 140 145 149 145 132 116 105 95 108 144 144 133 133 142 153 173 191 214 237 253 263 267 272 267 270 274 277 280 284 290
215 210 201 191 185 178 175 168 160 152 142 138 139 142 139 134 131 130 127 125 129 134 172 157 128 110 128 175 219 180 204 241 268 272 271 284 294 281 276 275 277 278 283 287
182 168 156 143 135 138 141 134 127 124 127 130 126 122 120 123 125 124 119 115 148 172 168 157 123 126 155 212 275 197 213 242 261 273 277 274 275 276 275 276 278 279 281 282
144 128 119 115 106 102 113 121 123 122 119 121 126 129 127 121 120 121 119 110 102 131 134 120 104 166 226 250 274 212 234 255 265 269 273 276 278 279 279 280 281 283 283 283
106 108 108 107 104 94 87 96 108 113 112 109 110 115 117 116 110 100 103 145 160 129 73 122 192 261 280 301 227 234 257 267 272 271 271 272 274 277 279 281 280 282 281 279
95 99 101 102 104 99 87 85 93 104 109 113 118 122 121 121 123 122 106 114 135 105 44 201 281 297 314 346 280 272 274 275 275 274 272 271 272 273 276 279 279 279 279 279
92 93 95 96 97 97 92 86 85 89 94 95 98 105 111 106 81 78 119 130 42 6 27 292 308 318 336 353 289 281 278 277 275 273 273 273 273 273 274 276 278 278 277 278
91 93 96 98 96 97 100 97 91 89 87 85 83 79 78 95 118 118 111 123 88 21 14 320 323 330 334 297 286 281 279 275 276 279 275 278 278 278 278 277 277 278 279 278
87 87 85 85 93 100 100 98 95 93 94 91 80 74 74 78 92 97 90 76 55 355 347 320 310 314 303 290 286 284 281 286 293 290 280 279 279 279 279 278 278 277 277 277
82 83 84 80 75 78 84 88 93 92 94 102 93 82 81 79 77 74 60 32 0 338 316 307 303 298 293 291 289 287 285 283 282 281 282 281 280 279 280 279 280 279 279 278